Location: Biharia
(46.4333°N, 22.8000°E)
Time: 16:32:08
(UTC+00:00)

FENGYUN 1C DEB - Pass Details

Date: 19 August 2022
Orbit: 796 x 915 km, 98.9° (Epoch: 24 September)

Event Time Altitude Azimuth Distance (km) Brightness Sun altitude
Rises 01:09:07 0° 1° (N) 3,421 ? -21.1°
Reaches altitude 10° 01:12:28 10° 340° (NNW) 2,457 ? -20.7°
Maximum altitude 01:15:30 15° 306° (NW) 2,071 ? -20.4°
Enters shadow 01:17:09 14° 285° (WNW) 2,175 ? -20.2°
